DW9106 Madrid ES current weather conditions

sailwx.info

Wind from 222 at 0 knots gusting 4

Air temperature 26.7° C
Dewpoint 9.1° C

Last reported at 2016-Jul-01 23:37 UTC.
Time now 2016-Jul-02 00:30 UTC

Location: N 40°23' W 003°38'.
View on Google Maps.

See reports from other nearby stations

  
Tides and Currents Weather Stations Pressure Air Temp Water Temp Dewpoint Dewpoint Depression Visibility Wind Speed Wind Dir Waves Ship Positions
date/time (UTC)wind fromknots sea level pressurealtimeterstation pressurevisibilityair tempwater tempwave heightnotes
2016-Jul-01 23:37 222 0 gusting 4 26.7
2016-Jul-01 23:22 253 1 gusting 7 26.7
2016-Jul-01 23:07 240 1 gusting 5 27.2
2016-Jul-01 22:52 266 1 gusting 4 27.2
2016-Jul-01 22:37 257 0 gusting 4 27.2
2016-Jul-01 22:22 303 1 gusting 7 27.8
2016-Jul-01 22:07 250 1 gusting 9 27.8
2016-Jul-01 21:52 267 1 gusting 6 27.8
2016-Jul-01 21:37 257 1 gusting 5 28.3
2016-Jul-01 21:22 273 0 gusting 7 28.3
2016-Jul-01 21:07 306 4 gusting 12 28.9
2016-Jul-01 20:52 238 2 gusting 8 28.9
2016-Jul-01 20:37 253 1 gusting 8 29.4
2016-Jul-01 20:22 201 1 gusting 6 29.4
2016-Jul-01 20:07 221 0 gusting 6 29.4
2016-Jul-01 19:52 235 1 gusting 6 30.0
2016-Jul-01 19:37 250 1 gusting 7 30.6
2016-Jul-01 19:22 220 0 gusting 5 30.6
2016-Jul-01 19:07 249 1 gusting 9 31.1
2016-Jul-01 18:52 248 3 gusting 10 31.7
2016-Jul-01 18:37 155 1 gusting 6 32.2
2016-Jul-01 18:22 088 2 gusting 10 32.2
2016-Jul-01 18:07 311 3 gusting 10 32.8
2016-Jul-01 17:52 042 3 gusting 8 32.8
2016-Jul-01 17:36 214 2 gusting 11 33.3
2016-Jul-01 17:22 197 1 gusting 6 33.3
2016-Jul-01 17:07 252 1 gusting 10 33.3
2016-Jul-01 16:52 138 2 gusting 9 33.3
2016-Jul-01 16:37 201 3 gusting 11 33.3
2016-Jul-01 16:22 184 2 gusting 13 33.3
2016-Jul-01 16:07 252 2 gusting 7 33.9
2016-Jul-01 15:52 272 3 gusting 8 33.3
2016-Jul-01 15:37 291 3 gusting 13 33.3
2016-Jul-01 15:21 182 2 gusting 13 33.3
2016-Jul-01 15:08 271 2 gusting 9 33.3
2016-Jul-01 14:51 301 4 gusting 9 33.3
2016-Jul-01 14:36 277 4 gusting 11 33.3
2016-Jul-01 14:21 213 2 gusting 9 32.8
2016-Jul-01 14:06 248 3 gusting 10 32.8
2016-Jul-01 13:51 193 4 gusting 9 32.8
2016-Jul-01 13:36 207 2 gusting 10 32.8
2016-Jul-01 13:21 274 2 gusting 9 32.8
2016-Jul-01 13:06 267 1 gusting 12 32.2
2016-Jul-01 12:51 287 2 gusting 6 31.7
2016-Jul-01 12:36 066 2 gusting 13 31.7
2016-Jul-01 12:21 219 2 gusting 10 32.2
2016-Jul-01 12:06 223 3 gusting 7 31.7
2016-Jul-01 11:51 252 1 gusting 7 31.1
2016-Jul-01 11:36 255 2 gusting 12 30.6
2016-Jul-01 11:21 211 3 gusting 11 30.6
2016-Jul-01 11:06 217 2 gusting 10 30.0
2016-Jul-01 10:51 212 1 gusting 6 30.0
2016-Jul-01 10:36 196 1 gusting 6 30.0
2016-Jul-01 10:21 086 0 gusting 6 30.0
2016-Jul-01 10:06 129 0 gusting 4 29.4
2016-Jul-01 09:51 165 0 gusting 4 28.9
2016-Jul-01 09:36 099 0 gusting 4 28.9
2016-Jul-01 09:21 159 1 gusting 3 28.3
2016-Jul-01 09:06 095 0 gusting 5 27.2
2016-Jul-01 08:51 100 0 gusting 5 27.2
2016-Jul-01 08:35 059 1 gusting 5 26.1
2016-Jul-01 08:20 080 1 gusting 6 25.6
2016-Jul-01 08:05 082 2 gusting 6 25.0
2016-Jul-01 07:50 082 0 gusting 4 25.0
2016-Jul-01 07:35 076 24.4
2016-Jul-01 07:20 078 0 gusting 3 24.4
2016-Jul-01 07:05 073 0 gusting 3 23.9
2016-Jul-01 06:50 069 1 gusting 4 23.3
2016-Jul-01 06:35 080 23.3
2016-Jul-01 06:20 050 1 gusting 4 22.8
2016-Jul-01 06:05 061 1 gusting 3 22.8
2016-Jul-01 05:50 052 1 gusting 3 22.8
2016-Jul-01 05:35 010 22.2
2016-Jul-01 05:20 010 21.7
2016-Jul-01 05:05 323 21.1
2016-Jul-01 04:49 323 21.1
2016-Jul-01 04:34 323 21.1
2016-Jul-01 04:19 323 21.7
2016-Jul-01 04:04 323 21.7
2016-Jul-01 03:49 323 21.7
2016-Jul-01 03:34 323 22.2
2016-Jul-01 03:19 323 22.2
2016-Jul-01 03:04 323 22.2
2016-Jul-01 02:49 323 22.8
2016-Jul-01 02:34 323 23.3
2016-Jul-01 02:19 324 23.3
2016-Jul-01 02:04 274 23.3
2016-Jul-01 01:49 274 23.3
2016-Jul-01 01:34 274 23.9
2016-Jul-01 01:19 274 24.4
2016-Jul-01 01:04 272 25.0
2016-Jul-01 00:49 262 25.0
2016-Jul-01 00:34 270 2 gusting 6 25.6
2016-Jul-01 00:19 248 25.6
2016-Jul-01 00:04 259 0 gusting 5 25.6
2016-Jun-30 23:49 263 25.6
2016-Jun-30 23:34 264 26.1
2016-Jun-30 23:19 264 0 gusting 3 26.1
2016-Jun-30 23:04 274 26.7
2016-Jun-30 22:49 271 0 gusting 6 26.7
2016-Jun-30 22:34 260 27.2
2016-Jun-30 22:19 226 0 gusting 4 27.2
2016-Jun-30 22:04 148 27.2
2016-Jun-30 21:49 269 0 gusting 8 27.8
2016-Jun-30 21:34 265 2 gusting 9 28.3
2016-Jun-30 21:19 258 2 gusting 9 28.3
2016-Jun-30 21:04 245 1 gusting 6 28.3
2016-Jun-30 20:49 253 1 gusting 7 28.9
2016-Jun-30 20:34 181 2 gusting 6 28.9
2016-Jun-30 20:19 252 0 gusting 6 29.4
2016-Jun-30 20:04 298 2 gusting 11 29.4
2016-Jun-30 19:49 248 1 gusting 7 30.0
2016-Jun-30 19:34 241 2 gusting 8 30.0
2016-Jun-30 19:19 277 0 gusting 8 30.6
2016-Jun-30 19:04 241 2 gusting 6 31.1
2016-Jun-30 18:49 240 1 gusting 7 31.7
2016-Jun-30 18:34 207 2 gusting 11 32.2
2016-Jun-30 18:19 226 2 gusting 6 32.2
2016-Jun-30 18:04 194 2 gusting 7 32.2
2016-Jun-30 17:49 162 0 gusting 6 32.2
2016-Jun-30 17:34 156 2 gusting 6 32.8
2016-Jun-30 17:18 261 2 gusting 7 32.8
2016-Jun-30 17:03 169 1 gusting 6 32.8
2016-Jun-30 16:48 132 2 gusting 11 32.8
2016-Jun-30 16:34 236 3 gusting 12 32.8
2016-Jun-30 16:18 158 3 gusting 12 33.3
2016-Jun-30 16:03 127 2 gusting 7 33.3
2016-Jun-30 15:48 284 4 gusting 13 33.3
2016-Jun-30 15:33 187 2 gusting 5 32.8
2016-Jun-30 15:18 269 3 gusting 12 32.8
2016-Jun-30 15:03 271 3 gusting 14 32.8
2016-Jun-30 14:48 292 4 gusting 12 33.3
2016-Jun-30 14:33 262 4 gusting 11 32.8
2016-Jun-30 14:18 242 2 gusting 8 32.8
2016-Jun-30 14:03 271 4 gusting 10 32.2
2016-Jun-30 13:48 005 3 gusting 12 32.2
2016-Jun-30 13:33 178 2 gusting 12 32.2
2016-Jun-30 13:18 222 5 gusting 13 32.2
2016-Jun-30 13:03 210 4 gusting 13 32.2
2016-Jun-30 12:48 236 1 gusting 7 32.2
2016-Jun-30 12:33 193 1 gusting 8 31.7
2016-Jun-30 12:18 303 1 gusting 10 31.1
2016-Jun-30 12:03 117 0 gusting 7 31.7
2016-Jun-30 11:48 234 1 gusting 5 31.1
2016-Jun-30 11:33 215 30.6
2016-Jun-30 11:18 174 30.0
2016-Jun-30 11:03 241 2 gusting 6 30.0
2016-Jun-30 10:48 157 0 gusting 5 30.0
2016-Jun-30 10:33 117 2 gusting 11 29.4
2016-Jun-30 10:18 134 1 gusting 6 29.4
2016-Jun-30 10:03 211 0 gusting 3 28.3
2016-Jun-30 09:48 263 2 gusting 6 27.8
2016-Jun-30 09:33 138 0 gusting 3 27.8
2016-Jun-30 09:18 090 26.7
2016-Jun-30 09:03 094 0 gusting 5 26.7
2016-Jun-30 08:47 082 0 gusting 6 25.6
2016-Jun-30 08:33 063 0 gusting 3 25.0
2016-Jun-30 08:17 051 1 gusting 4 24.4
2016-Jun-30 08:02 076 1 gusting 5 23.9
2016-Jun-30 07:47 080 1 gusting 5 23.9
2016-Jun-30 07:32 058 0 gusting 4 23.3
2016-Jun-30 07:17 063 1 gusting 4 22.2
2016-Jun-30 07:02 081 2 gusting 5 21.7
2016-Jun-30 06:47 071 2 gusting 5 21.7
2016-Jun-30 06:32 051 1 gusting 4 21.7
2016-Jun-30 06:17 086 2 gusting 6 21.1
2016-Jun-30 06:02 067 1 gusting 4 21.7
2016-Jun-30 05:47 047 0 gusting 5 21.1
2016-Jun-30 05:32 042 0 gusting 2 20.6
2016-Jun-30 05:16 046 20.6
2016-Jun-30 05:01 051 2 gusting 4 20.6
2016-Jun-30 04:46 053 0 gusting 3 20.0
2016-Jun-30 04:31 053 20.6
2016-Jun-30 04:16 053 20.6
2016-Jun-30 04:01 053 21.1
2016-Jun-30 03:46 051 21.1
2016-Jun-30 03:31 051 21.1
2016-Jun-30 03:16 049 0 gusting 3 21.7
2016-Jun-30 03:01 051 0 gusting 5 21.7
2016-Jun-30 02:46 039 0 gusting 3 22.2
2016-Jun-30 02:31 043 2 gusting 6 22.2
2016-Jun-30 02:16 061 0 gusting 5 22.2
2016-Jun-30 02:01 033 22.8
2016-Jun-30 01:46 033 22.8
2016-Jun-30 01:31 033 0 gusting 2 23.3
2016-Jun-30 01:16 043 23.9
2016-Jun-30 01:01 044 1 gusting 4 23.9
2016-Jun-30 00:46 239 23.9
2016-Jun-30 00:31 239 24.4
2016-Jun-30 00:16 239 24.4
2016-Jun-30 00:01 239 25.0